Weather History for K12N - October, 2013

Change the Weather History Date:

Tuesday, October 1, 2013

  Actual Average (KFWN) Record (KFWN)
Temperature  
Mean Temperature 62 °F -  
Max Temperature 79 °F 65 °F 87 °F (1986)
Min Temperature 46 °F 42 °F 29 °F (1991)
Degree Days  
Heating Degree Days 4    
Growing Degree Days 12 (Base 50)    
Moisture  
Dew Point 53 °F    
Average Humidity 80    
Maximum Humidity 97    
Minimum Humidity 48    
Precipitation  
Precipitation 0.00 in - - ()
Sea Level Pressure  
Sea Level Pressure 29.99 in    
Wind  
Wind Speed 0 mph (West)    
Max Wind Speed 5 mph    
Max Gust Speed -    
Averages and records for this station are not official NWS values.
T = Trace of Precipitation, MM = Missing Value Source: NWS Daily Summary

Daily Weather History Graph

Daily Weather History Graph

Search for Another Location

Airport or City:

Trip Planner

Search our weather history database for the weather conditions in past years. The results will help you decide how hot, cold, wet, or windy it might be!

Date:

Astronomy

Oct. 01, 2013 Rise Set
Actual Time 6:55 AM EDT 6:40 PM EDT
Civil Twilight 6:28 AM EDT 7:07 PM EDT
Nautical Twilight 5:56 AM EDT 7:39 PM EDT
Astronomical Twilight 5:24 AM EDT 8:11 PM EDT
Moon 3:26 AM EDT (10/1) 4:44 PM EDT (10/1)
Length of Visible Light 12h 39m
Length of Day
11h 44m
Waning Crescent, 12% of the Moon is Illuminated
Oct 1
Waning Crescent
Oct 4
New
Oct 11
First Quarter
Oct 18
Full
Oct 26
Last Quarter

Hourly Weather History & Observations

Time (EDT) Temp. Dew Point Humidity Pressure Visibility Wind Dir Wind Speed Gust Speed Precip Events Conditions
12:54 AM 48.9 °F 46.9 °F 93% 30.01 in - Calm Calm - N/A   Unknown
1:54 AM 48.0 °F 46.9 °F 96% 30.02 in - Calm Calm - N/A   Unknown
2:54 AM 48.0 °F 46.9 °F 96% 30.01 in - Calm Calm - N/A   Unknown
3:54 AM 48.0 °F 46.0 °F 93% 30.00 in - Calm Calm - N/A   Unknown
4:54 AM 48.0 °F 46.0 °F 93% 30.00 in - Calm Calm - N/A   Unknown
5:54 AM 48.0 °F 46.0 °F 93% 30.02 in - SSW 3.5 mph - N/A   Unknown
6:54 AM 46.9 °F 45.0 °F 93% 30.04 in - Calm Calm - N/A   Unknown
7:54 AM 48.0 °F 46.9 °F 96% 30.04 in - Calm Calm - N/A   Unknown
8:54 AM 54.0 °F 52.0 °F 93% 30.05 in - Calm Calm - N/A   Unknown
9:54 AM 62.1 °F 54.0 °F 75% 30.04 in - Calm Calm - N/A   Unknown
10:54 AM 68.0 °F 55.0 °F 63% 30.03 in - Calm Calm - N/A   Unknown
11:54 AM 72.0 °F 57.0 °F 59% 30.01 in - Calm Calm - N/A   Unknown
12:54 PM 75.9 °F 57.0 °F 52% 29.98 in - Variable 4.6 mph - N/A   Unknown
1:54 PM 77.0 °F 55.9 °F 48% 29.96 in - Calm Calm - N/A   Unknown
2:54 PM 77.0 °F 55.9 °F 48% 29.94 in - NW 4.6 mph - N/A   Unknown
3:54 PM 75.0 °F 57.0 °F 53% 29.93 in - Calm Calm - N/A   Unknown
4:54 PM 75.0 °F 59.0 °F 57% 29.93 in - Calm Calm - N/A   Unknown
5:54 PM 73.0 °F 59.0 °F 61% 29.93 in - Calm Calm - N/A   Unknown
6:54 PM 66.0 °F 59.0 °F 78% 29.95 in - Calm Calm - N/A   Unknown
7:54 PM 62.1 °F 59.0 °F 90% 29.97 in - Calm Calm - N/A   Unknown
8:54 PM 59.0 °F 57.0 °F 93% 29.97 in - Calm Calm - N/A   Unknown
9:54 PM 57.0 °F 55.0 °F 93% 29.97 in - Calm Calm - N/A   Unknown
10:54 PM 55.9 °F 55.0 °F 97% 29.97 in - Calm Calm - N/A   Unknown
11:54 PM 55.0 °F 54.0 °F 96% 29.97 in - Calm Calm - N/A   Unknown